Regional Weather Roundup
Issued by NWS Mt. Holly, NJ

Current Version | Previous Version | Text Only | Print | Product List | Glossary Off
Versions: 1 2 3 4 5 6 7 8 9 10 11 12 13 14 15 16 17 18 19 20 21 22 23 24 25 26 27 28 29 30 31 32 33 34 35 36 37 38 39 40 41 42 43 44 45 46 47 48 49 50

000
ASUS41 KPHI 231011
RWRPHI

REGIONAL WEATHER ROUNDUP
NATIONAL WEATHER SERVICE MOUNT HOLLY NJ
600 AM EDT SAT MAY 23 2015

NOTE:  "FAIR" INDICATES FEW OR NO CLOUDS BELOW 12,000 FEET WITH NO
SIGNIFICANT WEATHER AND/OR OBSTRUCTIONS TO VISIBILITY.

 * = STATION DOES NOT REPORT PRECIPITATION (E.G. RAIN, SNOW, ETC.)
        OR FOG.

NJZ015>026-231100-
SOUTHERN NEW JERSEY

CITY           SKY/WX    TMP DP  RH WIND       PRES   REMARKS
POMONA         CLEAR     47  37  68 CALM      30.34R
RIO GRANDE*    CLEAR     55  32  41 N7        30.36R
MILLVILLE      CLEAR     44  37  76 CALM      30.34R
WRIGHTSTOWN    CLEAR     45  30  56 N10       30.31R
MOUNT HOLLY    CLEAR     47  33  58 N6        30.34R
TRENTON        CLEAR     46  27  47 N8        30.33R

$$
NJZ001>014-231100-
NORTHERN NEW JERSEY

CITY           SKY/WX    TMP DP  RH WIND       PRES   REMARKS
SUSSEX         CLEAR     42  27  55 NW5       30.35R
ANDOVER*         N/A     42  28  57 N5        30.34R
MORRISTOWN     CLEAR     48  27  43 NW5       30.34R
NEWARK         CLEAR     49  26  41 NW8       30.34R
TETERBORO      CLEAR     47  26  44 NW9G18    30.32R
CALDWELL       CLEAR     46  26  45 NW6       30.34R
SOMERVILLE     CLEAR     45  28  51 CALM      30.33R
ALLAIRE*       CLEAR     46  25  42 NW9       30.32R
TOMS RIVER*    CLEAR    N/A N/A N/A N5        30.32R

$$
PAZ043-044-047-054-055-060>062-066>071-231100-
EASTERN PENNSYLVANIA

CITY           SKY/WX    TMP DP  RH WIND       PRES   REMARKS
PHILADELPHIA   PTCLDY    51  28  41 N9        30.35R
NORTH PHILA    CLEAR     50  25  37 N14       30.35R
BLUE BELL      CLEAR     46  30  53 N3        30.34R
DOYLESTOWN     CLEAR     44  32  62 N7        30.34R
QUAKERTOWN*    CLEAR     43  28  56 N3        30.36R
POTTSTOWN      CLEAR     45  30  55 N8        30.36R
LANCASTER      CLEAR     39  30  70 NW7       30.36R WCI  34
COATESVILLE    CLEAR     45  27  49 NW6       30.35R
READING        CLEAR     45  28  51 N5        30.36R
ALLENTOWN      CLEAR     44  27  51 N5        30.36R
MOUNT POCONO   CLEAR     34  25  69 NW9       30.31R WCI  27
HAZLETON       CLEAR     37  27  65 NW9       30.36R WCI  31
WILKES BARRE   CLEAR     41  27  57 NW7       30.36R

$$
DEZALL-MDZ008-012-015-019-020-231100-
DELAWARE AND EASTERN MARYLAND

CITY           SKY/WX    TMP DP  RH WIND       PRES   REMARKS
WILMINGTON     CLEAR     49  30  48 CALM      30.35R
DOVER          CLEAR     50  37  61 W3        30.32R
GEORGETOWN     CLEAR     50  36  58 NW3       30.35R
EASTON         CLEAR     53  39  58 N3        30.39R
PATUXENT       CLEAR     57  30  35 N10       30.36R
OCEAN CITY     CLEAR     51  38  60 N8        30.33R
WALLOPS ISLAND CLEAR     54  37  52 NW6       30.34R
CAMBRIDGE      CLEAR     57  36  44 N9        30.35R
SALISBURY      CLEAR     53  34  48 N9        30.34R

$$
PAZ001-021-NYZ056-072-MDZ011-DCZ001-231100-
OTHER NEARBY LOCATIONS

CITY           SKY/WX    TMP DP  RH WIND       PRES   REMARKS
HARRISBURG     PTCLDY    48  22  35 NW5       30.36R
STATE COLLEGE  CLEAR     39  23  52 CALM      30.38R
WILLIAMSPORT   CLEAR     39  30  70 CALM      30.38R
BINGHAMTON     CLEAR     32  27  81 W6        30.34R WCI  26
NEW YORK CITY  CLEAR     50  26  39 W6        30.35R
BALTIMORE      MOCLDY    46  33  60 CALM      30.37R
WASHINGTON DC  MOCLDY    55  30  38 NW8       30.39R

$$


USA.gov is the U.S. government's official web portal to all federal, state and local government web resources and services.